Regional Weather Roundup
Issued by NWS Green Bay, WI

Home | Current Version | Previous Version | Text Only | Print | Product List | Glossary On
Versions: 1 2 3 4 5 6 7 8 9 10 11 12 13 14 15 16 17 18 19 20 21 22 23 24 25 26 27 28 29 30 31 32 33 34 35 36 37 38 39 40 41 42 43 44 45 46 47 48 49 50
000
ASUS43 KGRB 240811
RWRGRB

NORTH-CENTRAL AND NORTHEAST WISCONSIN REGIONAL WEATHER ROUNDUP
NATIONAL WEATHER SERVICE GREEN BAY WI
300 AM CDT SUN SEP 24 2017

WIZ005-009-010>012-018-019-240900-
NORTH CENTRAL WISCONSIN

CITY           SKY/WX    TMP DP  RH WIND       PRES   REMARKS
IRONWOOD       MOCLDY    73  65  75 S9        30.00F
MANITOWISH WTR NOT AVBL
ARBOR VITAE    PTCLDY    72  64  77 S6        30.06S
EAGLE RIVER    CLOUDY    67  61  80 S3        30.07R
LAND O LAKES   PTCLDY    67  64  87 CALM      30.09S
RHINELANDER    PTCLDY    69  64  84 CALM      30.08S
PHILLIPS       PTCLDY    70  65  82 S7        30.03S
ANTIGO         CLEAR     66  64  93 S6        30.09R
TOMAHAWK       PTCLDY    63  62  95 CALM      30.07S
MERRILL        CLEAR     60  60 100 CALM      30.07S
$$

WIZ013-073-240900-
NORTHEAST WISCONSIN

CITY           SKY/WX    TMP DP  RH WIND       PRES   REMARKS
IRON MOUNTAIN  PTCLDY    71  64  78 SE3       30.05S
MARINETTE      CLEAR     71  66  84 SW3       30.06S
OCONTO         CLEAR     64  63  95 CALM      30.05S
$$

WIZ017-030-035>037-045-240900-
CENTRAL WISCONSIN

CITY           SKY/WX    TMP DP  RH WIND       PRES   REMARKS
MEDFORD        CLEAR     66  62  86 S6        30.06R
WAUSAU         CLEAR     67  64  90 SE5       30.05S
MOSINEE        PTCLDY    66  63  88 SE3       30.07S
MARSHFIELD     CLEAR     66  60  81 S5        30.05S
WISC RAPIDS    CLEAR     70  64  81 S3        30.06S
STEVENS POINT  CLEAR     63  63 100 CALM      30.06S
WAUPACA        CLEAR     68  67  98 CALM      30.06S FOG
SHAWANO        CLEAR     71  66  84 CALM      30.06S
CLINTONVILLE   CLEAR     64  63  94 CALM      30.06S FOG
WAUTOMA        CLEAR     64  63  96 CALM      30.06S
$$

WIZ038-039-048-051-240900-
FOX VALLEY

CITY           SKY/WX    TMP DP  RH WIND       PRES   REMARKS
NWS GREEN BAY  PTCLDY    70  67  90 S3        30.06S
APPLETON       CLEAR     68  61  77 S3        30.06R
OSHKOSH        CLEAR     68  64  87 S6        30.06S
FOND DU LAC    CLEAR     70  63  78 S7        30.07S
$$

WIZ022-050-052-240900-
EAST CENTRAL WISCONSIN

CITY           SKY/WX    TMP DP  RH WIND       PRES   REMARKS
EPHRAIM        FAIR      71  63  77 S6        30.07R
WASHINGTON ISL FAIR      67  65  91 S5        30.06R
STURGEON BAY   CLEAR     73  65  75 S9        30.08R
MANITOWOC      CLEAR     68  64  87 S5        30.08S
SHEBOYGAN      CLEAR     64  64 100 CALM      30.08S FOG
$$

LMZ563-521-522-541>543-240900-
LAKESHORE

STATION/POSITION TIME  TEMP    WIND        PRES    VSBY  WAVE
                       AIR SEA DIR/SP/G                  HT/PER
                 (UTC) (F)     (DEG/KT/KT) (MB)    (MI)  (FT/S)
SHEBOYGAN LKSHOR 0800   72     200/  6/  6 1018.0F
KEWAUNEE LKSHORE 0748   65     170/  6/  7 1017.5F
NORTHPORT PIER   0740   69     150/  5/  7 1017.6R
N MID LAKE BUOY  0750   68 67  190/  6/  8 1018.6R         1/ 4
S GREEN BAY BUOY 0800   72 69  160/  8/ 10 1017.6
SISTER BAY LKSHO 0719   72     160/  7/  9   N/A
MENOMINEE LKSHOR 0748   73     190/  6/  8 1017.4R
$$




USA.gov is the U.S. government's official web portal to all federal, state and local government web resources and services.